| time (UTC) | temp F | wind direction | speed MPH | gust MPH | rain 1hr in | rain 24hr in | rain mn in | humidity % | barometer mb |
| 20260902161521 | 87 | 150 | 0.0 | 3.0 | 0.00 | 0.00 | 0.00 | 69 | 1013.6 |
| 20260902160011 | 87 | 349 | 1.0 | 5.0 | 0.00 | 0.00 | 0.00 | 69 | 1013.8 |
| 20260902154520 | 86 | 215 | 0.0 | 3.0 | 0.00 | 0.00 | 0.00 | 71 | 1013.8 |
| 20260902151544 | 84 | 350 | 0.0 | 3.0 | 0.00 | 0.00 | 0.00 | 73 | 1013.9 |
| 20260902150043 | 84 | 23 | 3.0 | 8.0 | 0.00 | 0.00 | 0.00 | 72 | 1014.2 |
| 20260902144540 | 84 | 181 | 2.0 | 10.0 | 0.00 | 0.00 | 0.00 | 72 | 1013.4 |
| 20260902143040 | 82 | 222 | 2.0 | 5.0 | 0.00 | 0.00 | 0.00 | 74 | 1013.3 |
| 20260902141537 | 82 | 258 | 1.0 | 6.0 | 0.00 | 0.00 | 0.00 | 75 | 1013.5 |
| 20260902140035 | 82 | 178 | 2.0 | 6.0 | 0.00 | 0.00 | 0.00 | 75 | 1013.6 |
| 20260902134538 | 82 | 194 | 1.0 | 5.0 | 0.00 | 0.00 | 0.00 | 75 | 1013.7 |
| 20260902133035 | 80 | 227 | 2.0 | 5.0 | 0.00 | 0.00 | 0.00 | 76 | 1013.6 |
| 20260902131533 | 79 | 256 | 1.0 | 5.0 | 0.00 | 0.00 | 0.00 | 80 | 1013.7 |
| 20260902130032 | 77 | 244 | 0.0 | 3.0 | 0.00 | 0.00 | 0.00 | 83 | 1013.9 |
| 20260902124532 | 77 | 196 | 0.0 | 6.0 | 0.00 | 0.00 | 0.00 | 83 | 1013.8 |
| 20260902123033 | 77 | 177 | 0.0 | 5.0 | 0.00 | 0.00 | 0.00 | 81 | 1013.8 |
| 20260902121530 | 77 | 207 | 2.0 | 5.0 | 0.00 | 0.00 | 0.00 | 81 | 1013.7 |
| 20260902120033 | 77 | 196 | 1.0 | 4.0 | 0.00 | 0.00 | 0.00 | 81 | 1013.6 |
| 20260902114537 | 77 | 225 | 0.0 | 4.0 | 0.00 | 0.01 | 0.00 | 81 | 1013.6 |
| 20260902113035 | 76 | 257 | 0.0 | 2.0 | 0.00 | 0.01 | 0.00 | 82 | 1013.5 |
| 20260902111528 | 76 | 257 | 0.0 | 2.0 | 0.00 | 0.01 | 0.00 | 82 | 1013.7 |
| 20260902110027 | 76 | 257 | 0.0 | 2.0 | 0.00 | 0.01 | 0.00 | 81 | 1013.8 |
| 20260902104526 | 77 | 242 | 0.0 | 4.0 | 0.00 | 0.01 | 0.00 | 81 | 1013.8 |
| 20260902103028 | 77 | 245 | 0.0 | 4.0 | 0.00 | 0.01 | 0.00 | 80 | 1013.8 |
| 20260902101526 | 77 | 215 | 1.0 | 3.0 | 0.00 | 0.01 | 0.00 | 79 | 1013.6 |
| 20260902100024 | 78 | 234 | 0.0 | 3.0 | 0.00 | 0.01 | 0.00 | 78 | 1013.6 |
| 20260902094519 | 78 | 217 | 0.0 | 2.0 | 0.00 | 0.02 | 0.00 | 78 | 1013.7 |
| 20260902093016 | 79 | 205 | 0.0 | 3.0 | 0.00 | 0.02 | 0.00 | 76 | 1013.6 |
| 20260902091514 | 79 | 197 | 1.0 | 4.0 | 0.00 | 0.02 | 0.00 | 75 | 1013.4 |
| 20260902090011 | 80 | 227 | 1.0 | 5.0 | 0.00 | 0.02 | 0.00 | 74 | 1013.3 |
| 20260902084513 | 80 | 219 | 0.0 | 4.0 | 0.00 | 0.02 | 0.00 | 73 | 1013.3 |
| 20260902083010 | 80 | 248 | 0.0 | 4.0 | 0.00 | 0.02 | 0.00 | 73 | 1013.2 |
| 20260902081508 | 80 | 202 | 1.0 | 4.0 | 0.00 | 0.02 | 0.00 | 73 | 1013.1 |
| 20260902080010 | 80 | 211 | 0.0 | 5.0 | 0.00 | 0.02 | 0.00 | 74 | 1013.1 |
| 20260902074506 | 80 | 222 | 1.0 | 4.0 | 0.00 | 0.02 | 0.00 | 74 | 1013.1 |
| 20260902073005 | 81 | 226 | 1.0 | 5.0 | 0.00 | 0.02 | 0.00 | 74 | 1013.0 |
| 20260902071504 | 81 | 205 | 1.0 | 5.0 | 0.00 | 0.02 | 0.00 | 75 | 1012.9 |
| 20260902070004 | 81 | 221 | 0.0 | 2.0 | 0.00 | 0.02 | 0.00 | 75 | 1013.0 |
| 20260902064502 | 81 | 225 | 0.0 | 3.0 | 0.00 | 0.02 | 0.00 | 75 | 1013.2 |
| 20260902063102 | 81 | 236 | 0.0 | 5.0 | 0.00 | 0.02 | 0.00 | 76 | 1013.2 |
| 20260902060108 | 80 | 206 | 1.0 | 5.0 | 0.00 | 0.02 | 0.00 | 78 | 1013.2 |
| 20260902054557 | 81 | 215 | 1.0 | 6.0 | 0.00 | 0.02 | 0.00 | 77 | 1013.2 |
| 20260902053102 | 82 | 202 | 1.0 | 4.0 | 0.00 | 0.02 | 0.00 | 75 | 1013.2 |
| 20260902051553 | 82 | 224 | 0.0 | 4.0 | 0.00 | 0.02 | 0.00 | 75 | 1013.3 |
| 20260902050104 | 82 | 191 | 1.0 | 4.0 | 0.00 | 0.02 | 0.00 | 75 | 1013.2 |
| 20260902044552 | 82 | 202 | 2.0 | 7.0 | 0.00 | 0.02 | 0.02 | 75 | 1013.3 |
| 20260902043052 | 83 | 212 | 2.0 | 7.0 | 0.00 | 0.02 | 0.02 | 74 | 1013.2 |
| 20260902041550 | 82 | 165 | 2.0 | 7.0 | 0.00 | 0.02 | 0.02 | 75 | 1013.2 |
| 20260902040049 | 82 | 222 | 1.0 | 6.0 | 0.00 | 0.02 | 0.02 | 75 | 1013.3 |
| 20260902034549 | 83 | 202 | 1.0 | 6.0 | 0.00 | 0.02 | 0.02 | 75 | 1013.3 |
| 20260902033050 | 83 | 200 | 2.0 | 6.0 | 0.00 | 0.02 | 0.02 | 75 | 1013.4 |
| 20260902031547 | 83 | 205 | 2.0 | 6.0 | 0.00 | 0.02 | 0.02 | 74 | 1013.5 |
| 20260902030050 | 83 | 192 | 2.0 | 6.0 | 0.00 | 0.02 | 0.02 | 74 | 1013.5 |
| 20260902024547 | 83 | 211 | 2.0 | 5.0 | 0.00 | 0.02 | 0.02 | 75 | 1013.4 |
| 20260902023051 | 83 | 242 | 1.0 | 4.0 | 0.00 | 0.02 | 0.02 | 75 | 1013.4 |
| 20260902021546 | 83 | 207 | 0.0 | 4.0 | 0.00 | 0.02 | 0.02 | 75 | 1013.4 |
| 20260902020045 | 83 | 187 | 1.0 | 6.0 | 0.00 | 0.02 | 0.02 | 75 | 1013.3 |
| 20260902014548 | 84 | 188 | 1.0 | 5.0 | 0.00 | 0.02 | 0.02 | 75 | 1013.1 |
| 20260902013047 | 84 | 212 | 1.0 | 4.0 | 0.00 | 0.02 | 0.02 | 74 | 1012.9 |
| 20260902011549 | 85 | 215 | 2.0 | 7.0 | 0.00 | 0.02 | 0.02 | 74 | 1012.8 |
| 20260902010050 | 85 | 192 | 2.0 | 7.0 | 0.00 | 0.02 | 0.02 | 75 | 1012.6 |
| 20260902004544 | 85 | 213 | 0.0 | 4.0 | 0.00 | 0.02 | 0.02 | 76 | 1012.5 |
| 20260902003043 | 85 | 218 | 2.0 | 4.0 | 0.00 | 0.02 | 0.02 | 75 | 1012.3 |
| 20260902001544 | 86 | 178 | 1.0 | 5.0 | 0.00 | 0.02 | 0.02 | 75 | 1012.4 |
| 20260902000046 | 87 | 201 | 0.0 | 3.0 | 0.00 | 0.02 | 0.02 | 76 | 1012.5 |
| 20260901234540 | 88 | 190 | 0.0 | 4.0 | 0.00 | 0.05 | 0.02 | 75 | 1012.6 |
| 20260901233039 | 89 | 223 | 1.0 | 4.0 | 0.00 | 0.05 | 0.02 | 73 | 1012.6 |
| 20260901231538 | 89 | 173 | 1.0 | 5.0 | 0.00 | 0.05 | 0.02 | 71 | 1012.8 |
| 20260901230037 | 90 | 198 | 2.0 | 6.0 | 0.00 | 0.05 | 0.02 | 70 | 1012.8 |
| 20260901224539 | 90 | 184 | 2.0 | 4.0 | 0.00 | 0.08 | 0.02 | 69 | 1012.7 |
| 20260901223037 | 90 | 182 | 1.0 | 5.0 | 0.00 | 0.08 | 0.02 | 71 | 1012.7 |
| 20260901221547 | 92 | 210 | 0.0 | 4.0 | 0.00 | 0.08 | 0.02 | 69 | 1012.7 |
| 20260901220037 | 92 | 182 | 2.0 | 8.0 | 0.00 | 0.08 | 0.02 | 69 | 1012.7 |
| 20260901214547 | 91 | 169 | 1.0 | 4.0 | 0.00 | 0.08 | 0.02 | 67 | 1012.7 |
| 20260901213033 | 92 | 169 | 2.0 | 6.0 | 0.00 | 0.08 | 0.02 | 70 | 1012.7 |
| 20260901211533 | 92 | 199 | 1.0 | 5.0 | 0.00 | 0.08 | 0.02 | 68 | 1012.8 |
| 20260901210032 | 92 | 216 | 0.0 | 5.0 | 0.00 | 0.08 | 0.02 | 68 | 1012.9 |
| 20260901204536 | 92 | 205 | 1.0 | 4.0 | 0.00 | 0.08 | 0.02 | 65 | 1012.9 |
| 20260901203031 | 92 | 203 | 1.0 | 7.0 | 0.00 | 0.08 | 0.02 | 64 | 1013.0 |
| 20260901201530 | 93 | 204 | 4.0 | 9.0 | 0.00 | 0.08 | 0.02 | 64 | 1013.0 |
| 20260901200028 | 92 | 199 | 2.0 | 7.0 | 0.00 | 0.08 | 0.02 | 65 | 1013.1 |
| 20260901194532 | 92 | 196 | 3.0 | 8.0 | 0.00 | 0.08 | 0.02 | 64 | 1013.1 |
| 20260901193031 | 93 | 176 | 1.0 | 8.0 | 0.00 | 0.08 | 0.02 | 66 | 1013.3 |
| 20260901191537 | 93 | 250 | 1.0 | 6.0 | 0.00 | 0.08 | 0.02 | 63 | 1013.4 |
| 20260901190026 | 93 | 242 | 1.0 | 4.0 | 0.00 | 0.08 | 0.02 | 66 | 1013.4 |
| 20260901184521 | 92 | 261 | 1.0 | 8.0 | 0.00 | 0.08 | 0.02 | 66 | 1013.5 |
| 20260901183031 | 91 | 188 | 3.0 | 7.0 | 0.00 | 0.08 | 0.02 | 68 | 1013.7 |
| 20260901181519 | 91 | 205 | 1.0 | 5.0 | 0.00 | 0.08 | 0.02 | 69 | 1013.9 |
| 20260901180018 | 91 | 186 | 0.0 | 6.0 | 0.00 | 0.08 | 0.02 | 69 | 1013.8 |
| 20260901174515 | 90 | 242 | 0.0 | 5.0 | 0.00 | 0.08 | 0.02 | 71 | 1013.9 |
| 20260901173011 | 90 | 194 | 2.0 | 6.0 | 0.00 | 0.08 | 0.02 | 72 | 1013.9 |
| 20260901171509 | 89 | 192 | 2.0 | 6.0 | 0.00 | 0.08 | 0.02 | 74 | 1014.1 |
| 20260901170008 | 89 | 177 | 1.0 | 7.0 | 0.00 | 0.08 | 0.02 | 74 | 1014.1 |
| 20260901164506 | 88 | 232 | 2.0 | 6.0 | 0.00 | 0.08 | 0.02 | 74 | 1014.2 |
| 20260901163002 | 86 | 245 | 2.0 | 5.0 | 0.00 | 0.08 | 0.02 | 77 | 1014.3 |